User: anonymous   Login
Location: Unspecified
(0.0000°N, 0.0000°E)
Time: 21:46:47
(UTC+00:00)
Language:

UWE-3 - Orbit

View from above orbital plane
View from above orbital plane
View from above satellite
View from above satellite

Ground track
Ground track

The orbit data is extracted from the following two-line orbital elements,

1 39446U 13066AG  18048.95728441 +.00000200 +00000-0 +33405-4 0  9994
2 39446 097.6039 077.1967 0069778 203.4751 156.3271 14.78145723226915
Epoch (UTC): 17 February 2018 22:58:29
Eccentricity: 0.0069778
inclination: 97.6039°
perigee height: 586 km
apogee height: 684 km
right ascension of ascending node: 77.1967°
argument of perigee: 203.4751°
revolutions per day: 14.78145723
mean anomaly at epoch: 156.3271°
orbit number at epoch: 22691

The dashed part of the orbit path shows where the satellite is in the earth's shadow,  

DLR